STARLINK-6077, 56097

Orbit data source: Space-Track

STARLINK-6077, 56097 is a payload satellite owned by SpaceX/Seattle (US) in LEO that was launched on Wed, 29 Mar 2023 UTC via an FALCON 9 launch vehicle from the Air Force Eastern Test Range (AFETR). Payload-class satellites include a variety of spacecraft equipped with specific instruments for various scientific and technological missions. These include communications satellites like Starlink; space stations such as the ISS; scientific satellites like the Hubble; Earth observation satellites from companies like Planet Labs, Umbra, and HawkEye 360; GPS; miniature CubeSats for education and research; and military/defense satellites.

Loading next visibility...
Identifier
56097, 2023-046E
Orbit
LEO
Country
Flag of USUS
Related business
Manufacturer
SpaceX/Seattle
Mission
Operational Commercial Communications
Bus & Motor
STARLINK, Unknown motor
Mass
305 kg wet, ~290 kg dry
Launch date (UTC)
2023-03-29 (3 years ago)
Launch vehicle
FALCON 9
Launch site
Air Force Eastern Test Range (AFETR)
Object type
Payload
Rocket body
Debris
Shape & HBR
Box + 1 Pan, 10.1 m
Radar Cross Section
11.087 m², Large (>1 m²)

Expand to show TLE details & history
Last TLE update: 3 days ago

TLE from 3 days ago
0 STARLINK-6077
1 56097U 23046E   26170.54945168  .00000218  00000-0  17466-4 0  9999
2 56097  43.0024 259.0336 0001301 274.3729  85.6974 15.27577341178152
Epoch: 2026-06-19T13:11Z
TLE epoch observation values (Epoch: 2026-06-19T13:11:12.625Z)
Latitude
-0°
Longitude
153.45416°
Altitude
482.766 km
Speed
7.626 km/s
True Right ascension
17h 16m 08s
True Declination
0° 00' 00"
Sunlit
Object was in full shadow at epoch
Visualization orbit readout
Latitude
Unknown
Longitude
Unknown
Altitude
Unknown
Speed
Unknown
Apparent Right ascension
Unknown
Apparent Declination
Unknown
Sunlit
N/A
Visualization observer readout
Local Sidereal Time
21:25:03
Azimuth
Unknown
Elevation
Unknown
Doppler factor
Unknown
Orbital elements
Apogee altitude
485.895 km
Perigee altitude
484.109 km
Semi-major axis
6,863.139 km
Eccentricity
0.00013
Inclination
43.0024°
RAAN
259.0336°
Arg. of periapsis
274.3729°
True anomaly
85.71227°
Mean anomaly
85.6974°
Eccentric anomaly
85.70483°
Mean motion
3.81732 °/min
Orbital period
94.31 mins
BSTAR
0.000017466
Loading maneuver chart data...
Computing Atmospheric mass density...
Loading historical data...
Loading historical data...
Loading historical data...
Loading historical data...
Loading historical data...
Loading historical data...
Loading historical data...

Documentation

Showing up to 5 results
|